Regional Weather Roundup
Issued by NWS

Home | Current Version | Previous Version | Graphics & Text | Print | Product List | Glossary On
Versions: 1 2 3 4 5 6 7 8 9 10 11 12 13 14 15 16 17 18 19 20 21 22 23 24 25 26 27 28 29 30 31 32 33 34 35 36 37 38 39 40 41 42 43 44 45 46 47 48 49 50
000
ASUS43 KDMX 220501
RWRIA

WEATHER ROUNDUP FOR IOWA
NATIONAL WEATHER SERVICE DES MOINES IA
1100 PM CST WED FEB 21 2018

NOTE: "FAIR" INDICATES FEW OR NO CLOUDS BELOW 12,000 FEET WITH NO
SIGNIFICANT WEATHER AND/OR OBSTRUCTIONS TO VISIBILITY.

* - THESE STATIONS ARE NOT NWS STATIONS...THUS NOT UNDER NWS
QUALITY CONTROL.  THEY ALSO DO NOT REPORT WEATHER SUCH
AS PRECIPITATION OR FOG.

IAZ001>003-012>014-020>022-031>034-043>046-220600-
   NORTHWEST IOWA

CITY           SKY/WX    TMP DP  RH WIND       PRES   REMARKS
CARROLL *      CLOUDY    21  16  79 E10       30.54F WCI  10
CHEROKEE *     CLOUDY    18  13  80 E3        30.54F
DENISON *      CLOUDY    19  14  79 E12       30.52F WCI   7
LE MARS *      CLOUDY    19  12  73 SE7       30.55F WCI  10
ORANGE CITY *  CLOUDY    18  16  93 SE3       30.53S
SHELDON *      CLOUDY    14  12  92 E7        30.52F WCI   4
SIOUX CITY     CLOUDY    20  14  77 E6        30.54F WCI  12
SPENCER        MIX PCPN  16  11  80 E7        30.56F WCI   6
STORM LAKE *   CLOUDY    18  12  79 E12       30.52F WCI   5
$$

IAZ055>058-069>071-079>083-090>094-220600-
   SOUTHWEST IOWA

CITY           SKY/WX    TMP DP  RH WIND       PRES   REMARKS
ATLANTIC *     CLOUDY    23  18  80 NE9G16    30.51F WCI  13
AUDUBON *      CLOUDY    21  18  86 NE13      30.51F WCI   9
CLARINDA *     CLOUDY    27  21  80 E9G16     30.52F WCI  17
COUNCIL BLFS * CLOUDY    23  19  86 NE10      30.50F WCI  12
CRESTON *      CLOUDY    23  19  86 E17       30.49F WCI   9
HARLAN  *      CLOUDY    21  18  86 NE10      30.54F WCI  10
LAMONI         CLOUDY    24  19  81 NE14      30.48F WCI  12
RED OAK *      CLOUDY    25  19  80 E10       30.51S WCI  15
SHENANDOAH *   CLOUDY    27  19  74 NE13      30.51S WCI  16
$$

IAZ047>049-059>061-072>074-084-220600-
   CENTRAL IOWA

CITY           SKY/WX    TMP DP  RH WIND       PRES   REMARKS
AMES           CLOUDY    23  15  71 NE10      30.56F WCI  12
ANKENY *       CLOUDY    23  18  80 NE8       30.58F WCI  14
BOONE *        CLOUDY    21  18  86 NE13      30.54F WCI   9
CHARITON *     MOCLDY    23  19  86 NE9       30.52F WCI  13
DES MOINES     CLOUDY    24  15  68 NE9       30.55F WCI  14
GRINNELL*      CLOUDY    23  18  80 NE10      30.57F WCI  13
KNOXVILLE *    CLOUDY    23  16  74 NE9       30.52F WCI  13
MARSHALLTOWN   CLOUDY    23  16  74 NE12      30.57F WCI  12
NEWTON *       CLOUDY    23  16  74 NE9G16    30.56F WCI  13
PELLA *        CLOUDY    24  18  78 NE6       30.56F WCI  17
$$

IAZ004>006-015-016-023>025-035-036-220600-
   NORTH CENTRAL IOWA

CITY           SKY/WX    TMP DP  RH WIND       PRES   REMARKS
CLARION *      CLOUDY    21  21 100 E8        30.58F WCI  12
ESTHERVILLE    CLOUDY    13   7  77 E7        30.56F WCI   3
FORT DODGE *   CLOUDY    19  15  84 NE8       30.57F WCI   9
MASON CITY     CLOUDY    21  14  74 E6        30.60F WCI  13
FOREST CITY *  CLOUDY    21  18  86 CALM      30.58F
WEBSTER CITY * CLOUDY    21  14  73 E8        30.56F WCI  12
IOWA FALLS *   CLOUDY    23  17  78 NE7       30.58F WCI  14
$$

IAZ007>011-017>019-026>030-037>042-050>054-066-220600-
   NORTHEAST IOWA

CITY           SKY/WX    TMP DP  RH WIND       PRES   REMARKS
CEDAR RAPIDS   CLOUDY    25  14  63 NE14      30.56F WCI  13
CHARLES CITY * CLOUDY    21  18  86 NE6       30.60S WCI  14
CLINTON *      FAIR      25  20  81 NE13      30.58F WCI  14
DECORAH *      CLOUDY    19  16  86 NE5       30.59F WCI  13
DUBUQUE        FAIR      23  14  68 NE10      30.58F WCI  12
MONTICELLO *   CLOUDY    25  16  68 NE6       30.59F WCI  18
OELWEIN *      CLOUDY    21  19  93 NE9       30.59F WCI  11
WATERLOO       CLOUDY    22  15  75 E8        30.60F WCI  12
$$

IAZ064-065-067-068-078-220600-
   EAST CENTRAL IOWA

CITY           SKY/WX    TMP DP  RH WIND       PRES   REMARKS
DAVENPORT      FAIR      27  18  69 NE13      30.58F WCI  16
IOWA CITY      CLOUDY    27  16  63 NE12      30.58F WCI  17
MT. PLEASANT * CLOUDY    27  21  80 NE12      30.53F WCI  16
MUSCATINE *    FAIR      28  19  69 NE10      30.57F WCI  19
QUAD CITIES    FAIR      28  20  71 NE10      30.56F WCI  19
$$

IAZ062-063-075>077-085>089-095>099-220600-
   SOUTHEAST IOWA

CITY           SKY/WX    TMP DP  RH WIND       PRES   REMARKS
BURLINGTON     CLOUDY    27  20  75 NE12      30.53F WCI  17
FAIRFIELD *    CLOUDY    25  18  74 NE9       30.53F WCI  15
FORT MADISON * CLOUDY    27  21  80 NE8       30.54R WCI  18
KEOKUK *       CLOUDY    28  23  80 NE6G14    30.53R WCI  22
OSKALOOSA *    FAIR      24  19  79 NE13      30.54F WCI  13
OTTUMWA        MOCLDY    26  17  68 NE10      30.53F WCI  16
WASHINGTON *   MOCLDY    27  23  86 NE10      30.56F WCI  17
$$

ABBREVIATIONS USED IN REMARKS
   TC - TEMPERATURES IN CELSIUS
  WCI - WIND CHILL INDEX
   HX - HEAT INDEX
  VSB - VISIBILITY
$$




USA.gov is the U.S. government's official web portal to all federal, state and local government web resources and services.